Voltar ao catálogo

STARLINK-33786

AtivoComunicaçõesVLEO
NORAD 63514·PAYLOAD·🇺🇸 United States

Lançado Apr 7, 2025 de Vandenberg Space Force Base

Loading…

Próximas Passagens (próximas 24 horas)

TLE

AtualizadoSource: CelesTrak SupGP

Época: Sep 15, 2026, 03:21 UTC

1 63514C 25071X   26258.14006944  .00068563  00000+0  20253-2 0  2584
2 63514  53.1580 338.5427 0001208  95.9763 308.4895 15.34363407    19

Acompanhe STARLINK-33786 em tempo real com AllMySat

Download on the App Store